[[{"header":{"parameterUnit":"m.s-1","parameterCategory":1,"la1":30.2991,"la2":30.254,"lo1":-89.0895,"lo2":-89.0444,"dy":0.0017,"dx":0.0017,"nx":28,"ny":28,"refTime":"2025-08-13T09:00:00:Z","depth":0,"parameterNumber":2,"parameterNumberName":"U-component_of_WINDS"},"data":[0,0,0,0,0,0,0,0,0,0,0,0,0,0,0,0,0,0,0,0,0,0,0,0,0,0,0,0,0,0,0,0,0,0,0,0,0,0,0,0,0,0,0,0,0,0,0,0,0,0,0,0,0,0,0,0,0,0,3.665,3.6652,0,3.6804,3.6806,3.6808,3.6754,3.6751,3.6748,3.6744,3.6904,3.6911,3.6919,0,0,0,0,0,0,0,0,0,0,0,0,0,3.631,3.6316,3.665,3.6652,3.6654,3.6804,3.6806,3.6808,3.6755,3.6751,3.6747,3.6743,3.6902,3.6911,3.692,0,0,0,0,0,0,0,0,0,0,0,0,0,3.646,3.6318,3.6649,3.6645,3.6646,3.6803,3.6806,3.6809,3.6756,3.6751,3.6746,3.6741,3.6899,3.691,3.6921,3.7092,0,0,3.6955,3.696,0,0,0,0,0,0,0,0,3.6452,3.6473,3.6644,3.6646,3.6647,3.6755,3.6745,3.6904,3.6757,3.6714,3.6744,3.6738,3.6859,3.6873,3.6913,3.7099,3.7106,3.6956,3.6963,3.6967,3.6971,0,0,0,0,0,0,0,3.6441,3.6466,3.6711,3.6646,3.6649,3.6636,3.6651,3.6774,3.6813,3.6718,3.6714,3.6733,3.6859,3.6903,3.6916,3.7109,3.6955,3.6965,3.6972,3.6977,3.744,3.7446,0,0,0,0,0,0,3.643,3.6457,3.6706,3.6715,3.6535,3.6646,3.6664,3.6725,3.6812,3.682,3.6737,3.673,3.6886,3.6904,3.6922,3.7126,3.6967,3.6978,3.6984,3.7435,3.7442,3.7448,0,0,0,0,0,0,3.6423,3.6452,3.67,3.6586,3.6616,3.6657,3.6727,3.6731,3.6775,3.6827,3.6833,3.6775,3.6883,3.6906,3.7049,3.7131,3.6983,3.6993,3.7428,3.7437,3.7445,3.7537,0,0,0,0,0,0,3.6413,3.645,3.6516,3.6587,3.6622,3.6825,3.6732,3.6738,3.6794,3.6786,3.6864,3.6872,3.688,3.7033,3.706,3.7144,3.7002,3.7421,3.7432,3.7442,3.7527,3.7548,3.7565,0,0,0,0,0,3.6401,3.6536,3.6519,3.655,3.6705,3.683,3.685,3.6856,3.6801,3.6867,3.69,3.6869,3.7118,3.7048,3.7079,3.7166,3.7416,3.7429,3.7441,3.7518,3.7544,3.7565,0,0,0,0,0,0,3.6474,3.6546,3.6528,3.669,3.6754,3.682,3.6904,3.6883,3.6965,3.6954,3.696,3.6978,3.7124,3.716,3.7081,3.7335,3.7259,3.7278,3.7307,3.7331,3.735,3.7338,3.7011,0,0,0,0,0,3.6509,3.6604,3.6662,3.6799,3.6832,3.6863,3.6917,3.6917,3.6984,3.7011,3.7054,3.712,3.7213,3.7274,3.7363,3.7532,3.7547,3.7607,3.7626,3.7642,3.7658,3.7749,3.7775,3.7489,3.7489,3.7489,0,0,3.6583,3.6633,3.6693,3.6815,3.6865,3.6963,3.6886,3.6993,3.7066,3.7027,3.7164,3.7198,3.7273,3.7429,3.75,3.7463,3.7741,3.7658,3.767,3.7678,3.7764,3.7791,3.7815,3.7498,3.7496,3.7495,0,0,3.6766,3.6815,3.6933,3.6984,3.706,3.7079,3.7107,3.7177,3.7198,3.7335,3.7307,3.7394,3.7554,3.7608,3.7656,3.7858,3.7832,3.7886,3.7987,3.8074,3.8097,3.8117,3.8187,3.8213,3.7903,3.7903,3.7903,0,3.6848,3.6994,3.6998,3.7107,3.7161,3.7129,3.7249,3.7298,3.7399,3.7437,3.7394,3.7593,3.7641,3.7809,3.7857,3.7898,3.793,3.7877,3.8093,3.8113,3.8132,3.8199,3.8226,3.7909,3.7908,3.7908,3.7907,0,3.709,3.7191,3.7279,3.7375,3.7439,3.7554,3.7574,3.7639,3.7632,3.7656,3.7795,3.7852,3.795,3.799,3.7986,3.8156,3.8131,3.8091,3.8014,3.8165,3.8228,3.8254,3.7918,3.7915,3.7914,3.7912,0,0,3.7324,3.742,3.7452,3.7494,3.7574,3.7653,3.7766,3.7861,3.7915,3.7986,3.8079,3.8215,3.8177,3.8232,3.8233,3.8311,3.8465,3.8261,3.8263,3.8295,3.8654,3.8683,3.8713,3.8448,3.8453,3.8457,3.8647,0,3.7512,3.7709,3.7715,3.7895,3.7988,3.7958,3.8056,3.8115,3.814,3.8223,3.825,3.8345,3.829,3.8322,3.8398,3.843,3.8537,3.8416,3.8535,3.8539,3.8516,3.8746,3.8777,3.8954,3.8672,3.8677,3.868,0,3.7759,3.7835,3.8024,3.8089,3.8128,3.8216,3.8302,3.8382,3.8449,3.8461,3.8521,3.8511,3.8625,3.8544,3.8701,3.8619,3.8668,3.8691,3.8698,3.8709,3.8618,3.8761,3.9011,3.9037,3.8719,3.8716,3.8713,0,3.7909,3.8059,3.8191,3.8228,3.8308,3.837,3.8406,3.8467,3.8523,3.8599,3.8636,3.8724,3.8773,3.8842,3.8855,3.8796,3.9012,3.8933,3.9025,3.9024,3.9071,3.9067,3.933,3.9105,3.9104,3.9104,3.9103,0,3.8118,3.8234,3.8259,3.834,3.8468,3.8474,3.8601,3.8633,3.8688,3.8774,3.8755,3.8836,3.8849,3.8934,3.8945,3.9072,3.9095,3.9107,3.9109,3.9108,3.9107,3.914,3.9127,3.9111,3.9109,3.9108,3.9107,0,3.8307,3.8328,3.8469,3.8532,3.8551,3.8643,3.8697,3.8774,3.8796,3.8905,3.8931,3.8966,3.9064,3.9084,3.9201,3.9208,3.9359,3.9349,3.9336,3.9335,3.9425,3.9415,3.9717,3.9756,3.9506,3.9509,3.9511,0,3.8438,3.8527,3.8598,3.8654,3.8693,3.8784,3.884,3.8849,3.8909,3.899,3.9057,3.9153,3.923,3.9388,3.9424,3.9512,3.9504,3.9603,3.9517,3.9513,3.9503,3.9497,3.9505,3.9619,3.9622,3.9624,3.9626,0,3.8669,3.8674,3.8756,3.8842,3.891,3.8978,3.9043,3.909,3.9107,3.9175,3.9274,3.9334,3.9452,3.9547,3.9635,3.9672,3.9652,3.9653,3.9678,3.9678,3.9666,3.9672,3.938,3.9646,3.9644,3.9642,3.9641,3.964,3.8832,3.8908,3.897,3.9062,3.9111,3.9171,3.9246,3.9277,3.936,3.9455,3.9456,3.9564,3.9627,3.9743,3.9786,3.987,3.9839,3.9877,3.9886,3.9895,3.9902,3.9654,3.9887,3.9886,3.9886,3.9885,3.9885,0,3.906,3.9098,3.9182,3.9272,3.9344,3.9318,3.9388,3.9449,3.9544,3.9605,3.968,3.9793,3.9885,3.9927,4.0017,4.0077,4.007,4.01,4.0095,4.0104,3.9926,3.9894,4.0104,4.0104,4.0104,4.0104,4.0104,4.0104,3.9187,3.9314,3.9327,3.9477,3.9515,3.962,3.9661,3.9717,3.9764,3.9891,3.9967,3.9993,4.0046,4.014,4.0222,4.0232,4.0266,4.03,4.0306,4.0139,4.0117,4.0095,4.0065,4.0308,4.0308,4.0476,4.0478,4.0479]},{"header":{"parameterUnit":"m.s-1","parameterCategory":1,"la1":30.2991,"la2":30.254,"lo1":-89.0895,"lo2":-89.0444,"dy":0.0017,"dx":0.0017,"nx":28,"ny":28,"refTime":"2025-08-13T09:00:00:Z","depth":0,"parameterNumber":3,"parameterNumberName":"V-component_of_WINDS"},"data":[0,0,0,0,0,0,0,0,0,0,0,0,0,0,0,0,0,0,0,0,0,0,0,0,0,0,0,0,0,0,0,0,0,0,0,0,0,0,0,0,0,0,0,0,0,0,0,0,0,0,0,0,0,0,0,0,0,0,1.3508,1.3509,0,1.3549,1.355,1.355,1.3529,1.3528,1.3527,1.3526,1.3568,1.357,1.3572,0,0,0,0,0,0,0,0,0,0,0,0,0,1.341,1.3412,1.3508,1.3509,1.3509,1.3549,1.355,1.355,1.3529,1.3528,1.3527,1.3525,1.3567,1.357,1.3572,0,0,0,0,0,0,0,0,0,0,0,0,0,1.3452,1.3413,1.3508,1.3504,1.3504,1.3549,1.355,1.3551,1.353,1.3528,1.3526,1.3525,1.3566,1.3569,1.3572,1.3625,0,0,1.3582,1.3584,0,0,0,0,0,0,0,0,1.345,1.3456,1.3504,1.3504,1.3504,1.3533,1.3531,1.3576,1.353,1.352,1.3526,1.3524,1.3557,1.3561,1.3572,1.3627,1.3629,1.3583,1.3584,1.3586,1.3587,0,0,0,0,0,0,0,1.3447,1.3454,1.3525,1.3505,1.3505,1.3499,1.3503,1.3539,1.3547,1.3521,1.3519,1.3524,1.3557,1.3569,1.3573,1.3629,1.3582,1.3585,1.3587,1.3588,1.3727,1.3728,0,0,0,0,0,0,1.3444,1.3452,1.3523,1.3526,1.3472,1.3502,1.3507,1.3525,1.3547,1.3549,1.3526,1.3523,1.3565,1.357,1.3575,1.3636,1.3586,1.3589,1.3591,1.3725,1.3727,1.3729,0,0,0,0,0,0,1.3442,1.3451,1.3522,1.3488,1.3497,1.3506,1.3526,1.3527,1.3539,1.3551,1.3552,1.3537,1.3564,1.357,1.3612,1.3638,1.359,1.3593,1.3723,1.3726,1.3728,1.3761,0,0,0,0,0,0,1.344,1.345,1.3471,1.3489,1.3499,1.3559,1.3528,1.3529,1.3545,1.3542,1.3561,1.3563,1.3563,1.3607,1.3615,1.3641,1.3596,1.3721,1.3724,1.3727,1.3758,1.3764,1.377,0,0,0,0,0,1.3436,1.3479,1.3472,1.3481,1.3525,1.3561,1.3566,1.3565,1.3547,1.3567,1.3574,1.3563,1.3633,1.3612,1.3621,1.3648,1.3719,1.3723,1.3727,1.3755,1.3763,1.377,0,0,0,0,0,0,1.3464,1.3481,1.3474,1.3524,1.3541,1.3557,1.3583,1.3574,1.3597,1.3593,1.3591,1.3595,1.3639,1.3647,1.3623,1.3699,1.3673,1.3679,1.3692,1.37,1.3706,1.3703,1.3598,0,0,0,0,0,1.3476,1.3504,1.3517,1.356,1.3569,1.3574,1.359,1.3588,1.3605,1.3612,1.3623,1.364,1.3666,1.3683,1.3708,1.3759,1.3762,1.3781,1.3788,1.3793,1.3798,1.3824,1.3832,1.3742,1.3742,1.3742,0,0,1.3501,1.3514,1.3532,1.3566,1.3579,1.3607,1.3581,1.3612,1.3633,1.3617,1.3657,1.3665,1.3684,1.373,1.3751,1.3739,1.3823,1.3798,1.3802,1.3804,1.3829,1.3837,1.3845,1.3745,1.3744,1.3744,0,0,1.3561,1.3574,1.361,1.3623,1.3643,1.3646,1.3655,1.3672,1.3676,1.3717,1.3704,1.3729,1.3774,1.3788,1.3801,1.3864,1.3853,1.3872,1.3905,1.393,1.3937,1.3944,1.3965,1.3973,1.3877,1.3877,1.3877,0,1.359,1.3632,1.363,1.3662,1.3677,1.3663,1.3699,1.3712,1.3739,1.3749,1.3735,1.379,1.3802,1.3851,1.3866,1.3877,1.3886,1.387,1.3937,1.3943,1.3949,1.3969,1.3978,1.3879,1.3879,1.3879,1.3878,0,1.3666,1.3696,1.3723,1.3748,1.3766,1.38,1.3802,1.3821,1.3816,1.382,1.386,1.3874,1.39,1.3912,1.3908,1.3959,1.3951,1.3937,1.3911,1.3959,1.3979,1.3987,1.3882,1.3881,1.3881,1.388,0,0,1.3746,1.3769,1.3779,1.379,1.3809,1.3832,1.3865,1.389,1.3906,1.3924,1.3951,1.3989,1.3975,1.399,1.3987,1.4009,1.4057,1.3992,1.3992,1.4003,1.4114,1.4124,1.4133,1.405,1.4052,1.4053,1.4112,0,1.3807,1.3865,1.3863,1.3916,1.3943,1.3929,1.3957,1.3972,1.3977,1.3999,1.4004,1.4031,1.4011,1.4019,1.4041,1.4047,1.4079,1.4043,1.4075,1.4076,1.407,1.4144,1.4155,1.421,1.4119,1.4121,1.4122,0,1.3886,1.3907,1.3963,1.3977,1.3988,1.4014,1.4037,1.4059,1.4075,1.4076,1.4092,1.4085,1.4117,1.409,1.4134,1.4109,1.4122,1.4126,1.4128,1.4131,1.4102,1.4148,1.4228,1.4236,1.4134,1.4133,1.4132,0,1.3938,1.398,1.4018,1.4028,1.4046,1.4064,1.4073,1.4087,1.4102,1.4121,1.4131,1.4154,1.4166,1.4184,1.4183,1.4164,1.4227,1.4201,1.4229,1.4229,1.4243,1.4242,1.4325,1.4251,1.4251,1.4251,1.4251,0,1.4007,1.4041,1.4042,1.4066,1.4103,1.41,1.4138,1.4144,1.4156,1.418,1.417,1.4192,1.419,1.4213,1.4212,1.4248,1.4254,1.4255,1.4255,1.4256,1.4256,1.4265,1.4261,1.4253,1.4253,1.4252,1.4252,0,1.4071,1.4073,1.4114,1.4127,1.4131,1.4159,1.4169,1.4191,1.4194,1.4225,1.4232,1.4236,1.4262,1.4263,1.4293,1.4292,1.4335,1.4331,1.433,1.4329,1.4357,1.4354,1.4448,1.446,1.4379,1.438,1.4381,0,1.4115,1.4141,1.4156,1.4172,1.4181,1.4206,1.4221,1.4218,1.4234,1.4253,1.4272,1.4297,1.4317,1.4359,1.4364,1.4387,1.4382,1.4413,1.4385,1.4385,1.4382,1.438,1.4382,1.4419,1.442,1.4421,1.4421,0,1.4191,1.419,1.4213,1.4235,1.4253,1.427,1.4286,1.4299,1.4297,1.4316,1.4342,1.4357,1.4387,1.4411,1.4433,1.444,1.443,1.443,1.4437,1.4439,1.4437,1.4438,1.4345,1.4428,1.4427,1.4427,1.4426,1.4426,1.4246,1.4269,1.4282,1.4307,1.4318,1.4333,1.4354,1.4359,1.4381,1.4405,1.4401,1.443,1.4444,1.4471,1.4481,1.4503,1.4492,1.4503,1.4506,1.4508,1.4511,1.4434,1.4507,1.4506,1.4506,1.4506,1.4506,0,1.4322,1.433,1.4352,1.4374,1.4393,1.4382,1.4399,1.4415,1.444,1.4454,1.4473,1.4502,1.4526,1.4532,1.4554,1.4571,1.4566,1.4576,1.4575,1.4577,1.452,1.4511,1.4579,1.4579,1.4579,1.4579,1.4579,1.4579,1.4363,1.44,1.44,1.4442,1.4449,1.4477,1.4488,1.4501,1.4511,1.4544,1.4563,1.4567,1.4578,1.46,1.4621,1.4622,1.463,1.4642,1.4641,1.4588,1.4581,1.4574,1.4565,1.4644,1.4644,1.4696,1.4697,1.4697]}]]